Retour au catalogue

NEIJIANG GAOXIN

ActifScienceSSO
NORAD 63985·PAYLOAD·🇨🇳 China
Ce nom de satellite n'a pas encore été confirmé par des sources officielles.

Lancé May 14, 2025 depuis Jiuquan Satellite Launch Center

Loading…

Prochains Passages (prochaines 24 heures)

TLE

FraisSource: Space-Track

Époque: Sep 14, 2026, 13:03 UTC

1 63985U 25100D   26257.54383810  .00013003  00000-0  51576-3 0  9997
2 63985  97.3596 332.6637 0005384 347.0940  13.0159 15.25486441 74492

Suivez NEIJIANG GAOXIN en temps réel avec AllMySat

Download on the App Store